This demonstration page uses our WeatherBlox Daily Observations layout. Learn more.

Left ArrowRight Arrow

47.50024, -111.30081

Hourly Observations for January 6, 2022

Temp ( °F °C ) Dew Point ( °F °C ) Humidity (%) Winds ( mph kmh ) Pressure ( in mb ) Visibility ( mi km ) Precip ( " mm )
12:53 am 00:53 Clear -15 -26.1 -19 -28.3 82 82 E 6 9 30.50 1033 10 16 0.00 0.00
1:53 am 01:53 Clear -14 -25.6 -18 -27.8 82 82 E 5 7 30.46 1032 10 16 0.00 0.00
2:53 am 02:53 Clear -12 -24.4 -18 -27.8 73 73 E 8 13 30.42 1030 10 16 0.00 0.00
3:53 am 03:53 Clear -10 -23.3 -16 -26.7 74 74 E 6 9 30.39 1029 10 16 0.00 0.00
4:53 am 04:53 Mostly Clear -10 -23.3 -16 -26.7 74 74 E 9 15 30.33 1027 10 16 0.00 0.00
5:53 am 05:53 Cloudy -10 -23.3 -15 -26.1 78 78 E 6 9 30.29 1026 10 16 0.00 0.00
6:53 am 06:53 Cloudy -9 -22.8 -14 -25.6 78 78 E 3 6 30.24 1024 10 16 0.00 0.00
7:45 am 07:45 Cloudy with Light Snow -9 -22.8 -14 -25.6 78 78 ENE 3 6 30.38 1029 2 3 0.00 0.00
7:53 am 07:53 Cloudy with Light Snow -9 -22.8 -14 -25.6 78 78 ENE 3 6 30.21 1023 2 3 0.00 0.00
8:08 am 08:08 Cloudy with Light Snow -9 -22.8 -14 -25.6 78 78 NE 3 6 30.38 1029 1 2 0.00 0.00
8:29 am 08:29 Mostly Cloudy with Light Snow -9 -22.8 -14 -25.6 78 78 ENE 5 7 30.37 1028 1 1 0.01 0.25
8:49 am 08:49 Cloudy with Light Snow -9 -23 -15 -26 77 77 E 6 9 30.36 1028 1 2 0.02 0.51
8:53 am 08:53 Cloudy with Light Snow -9 -22.8 -14 -25.6 78 78 E 6 9 30.19 1023 1 2 0.02 0.51
9:09 am 09:09 Cloudy with Light Snow -9 -22.8 -14 -25.6 78 78 ENE 7 11 30.36 1028 1 1 0.00 0.00
9:53 am 09:53 Mostly Cloudy with Snow -9 -22.8 -14 -25.6 78 78 E 8 13 30.16 1022 1 1 0.02 0.51
10:29 am 10:29 Mostly Cloudy with Snow -9 -22.8 -14 -25.6 78 78 E 6 9 30.31 1027 1 1 0.02 0.51
10:53 am 10:53 Mostly Cloudy with Snow -9 -22.8 -14 -25.6 78 78 E 6 9 30.14 1021 1 1 0.04 1.02
11:53 am 11:53 Mostly Cloudy with Snow -7 -21.7 -13 -25 75 75 E 3 6 30.09 1019 1 1 0.05 1.27
12:22 pm 12:22 Mostly Cloudy with Light Snow -6 -21.1 -12 -24.4 75 75 E 5 7 30.20 1023 1 1 0.02 0.51
12:36 pm 12:36 Cloudy with Light Snow -6 -21.1 -11 -23.9 78 78 ENE 5 7 30.20 1023 1 2 0.03 0.76
12:53 pm 12:53 Cloudy with Light Snow -5 -20.6 -11 -23.9 75 75 ENE 5 7 30.06 1018 1 2 0.03 0.76
1:06 pm 13:06 Cloudy with Light Snow -5 -20.6 -10 -23.3 79 79 ENE 5 7 30.18 1022 1 2 0.01 0.25
1:22 pm 13:22 Cloudy with Light Snow -5 -20.6 -10 -23.3 79 79 ENE 3 6 30.17 1022 2 2 0.01 0.25
1:35 pm 13:35 Cloudy with Light Snow -4 -20 -10 -23.3 75 75 ENE 5 7 30.16 1021 1 2 0.01 0.25
1:45 pm 13:45 Cloudy with Light Snow -4 -20 -10 -23.3 75 75 E 6 9 30.15 1021 2 3 0.01 0.25
1:53 pm 13:53 Cloudy with Light Snow -4 -20 -10 -23.3 75 75 E 6 9 30.03 1017 2 3 0.01 0.25
2:15 pm 14:15 Cloudy with Haze -4 -20 -9 -22.8 79 79 ESE 7 11 30.14 1021 6 10 0.01 0.25
2:53 pm 14:53 Cloudy -4 -20 -9 -22.8 79 79 ESE 7 11 30.00 1016 10 16 0.01 0.25
3:53 pm 15:53 Mostly Cloudy -5 -20.6 -10 -23.3 79 79 E 6 9 29.97 1015 10 16 0.00 0.00
4:53 pm 16:53 Partly Cloudy -5 -20.6 -10 -23.3 79 79 SSE 6 9 29.93 1014 10 16 0.00 0.00
5:53 pm 17:53 Clear -5 -20.6 -9 -22.8 83 83 E 3 6 29.91 1013 10 16 0.00 0.00
6:53 pm 18:53 Clear -5 -20.6 -9 -22.8 83 83 E 7 11 29.87 1012 10 16 0.00 0.00
7:53 pm 19:53 Clear -5 -20.6 -10 -23.3 79 79 ESE 9 15 29.83 1010 9 14 0.00 0.00
8:53 pm 20:53 Clear -4 -20 -9 -22.8 79 79 ESE 7 11 29.80 1009 10 16 0.00 0.00

Powered by AerisWeather